When you browse on this site, cookies collect data to enhance your experience and personalize the content and advertising you see.
Visit our Privacy Policy to learn more. By continuing to use the site, you agree to this use of cookies and data.
  • In Austria
  • List of Countries
  • For 7 days
  • Water Temperature
  • Satellite Maps
  • Weather Map
  • News
  • Weather Widgets
  • user-avatar
    Login

    Hourly Weather Tarpon Springs

    Today, 19 April, Friday

    Time Temperature Precipitation Wind Pressure Humidity
    00:00 +26°C° 0.1 mm 7 mps 758 mmHg 76%
    01:00 +26°C° 0 mm 8 mps 757 mmHg 77%
    02:00 +26°C° 0 mm 8 mps 757 mmHg 77%
    03:00 +26°C° 0 mm 8 mps 756 mmHg 77%
    04:00 +26°C° 0 mm 9 mps 756 mmHg 75%
    05:00 +26°C° 0 mm 9 mps 756 mmHg 73%
    06:00 +27°C° 0 mm 9 mps 756 mmHg 71%
    07:00 +28°C° 0.2 mm 10 mps 756 mmHg 67%
    08:00 +28°C° 0.2 mm 10 mps 756 mmHg 63%
    09:00 +29°C° 0.2 mm 11 mps 756 mmHg 59%
    10:00 +29°C° 1.8 mm 12 mps 755 mmHg 60%
    11:00 +29°C° 1.8 mm 13 mps 755 mmHg 61%
    12:00 +29°C° 1.8 mm 14 mps 754 mmHg 61%
    13:00 +28°C° 8.5 mm 13 mps 755 mmHg 61%
    14:00 +26°C° 8.5 mm 12 mps 755 mmHg 61%
    15:00 +23°C° 8.5 mm 11 mps 755 mmHg 61%
    16:00 +23°C° 0 mm 11 mps 756 mmHg 58%
    17:00 +22°C° 0 mm 10 mps 756 mmHg 56%
    18:00 +22°C° 0 mm 10 mps 757 mmHg 53%
    19:00 +21°C° 0 mm 9 mps 758 mmHg 54%
    20:00 +21°C° 0 mm 9 mps 758 mmHg 54%
    21:00 +21°C° 0 mm 8 mps 759 mmHg 55%
    22:00 +21°C° 0 mm 8 mps 759 mmHg 55%
    23:00 +21°C° 0 mm 8 mps 759 mmHg 55%

    Tomorrow, 20 April, Saturday

    Time Temperature Precipitation Wind Pressure Humidity
    00:00 +21°C° 0 mm 9 mps 759 mmHg 56%
    01:00 +21°C° 0 mm 9 mps 759 mmHg 55%
    02:00 +19°C° 0 mm 9 mps 759 mmHg 55%
    03:00 +19°C° 0 mm 9 mps 759 mmHg 55%
    04:00 +19°C° 0 mm 9 mps 759 mmHg 56%
    05:00 +20°C° 0 mm 8 mps 760 mmHg 57%
    06:00 +20°C° 0 mm 8 mps 760 mmHg 58%
    07:00 +21°C° 0 mm 8 mps 760 mmHg 54%
    08:00 +21°C° 0 mm 9 mps 761 mmHg 51%
    09:00 +22°C° 0 mm 9 mps 761 mmHg 48%
    10:00 +22°C° 0 mm 8 mps 761 mmHg 47%
    11:00 +23°C° 0 mm 8 mps 761 mmHg 45%
    12:00 +23°C° 0 mm 8 mps 761 mmHg 44%
    13:00 +23°C° 0 mm 7 mps 761 mmHg 45%
    14:00 +22°C° 0 mm 7 mps 761 mmHg 45%
    15:00 +22°C° 0 mm 7 mps 760 mmHg 46%
    16:00 +22°C° 0 mm 7 mps 761 mmHg 48%
    17:00 +21°C° 0 mm 6 mps 761 mmHg 51%
    18:00 +20°C° 0 mm 6 mps 761 mmHg 53%
    19:00 +20°C° 0 mm 6 mps 762 mmHg 54%
    20:00 +20°C° 0 mm 5 mps 763 mmHg 54%
    21:00 +20°C° 0 mm 5 mps 763 mmHg 55%
    22:00 +20°C° 0.1 mm 5 mps 763 mmHg 55%
    23:00 +19°C° 0.1 mm 5 mps 763 mmHg 55%

    Day after tomorrow, 21 April, Sunday

    Time Temperature Precipitation Wind Pressure Humidity
    00:00 +19°C° 0.1 mm 5 mps 763 mmHg 56%
    01:00 +19°C° 0 mm 5 mps 763 mmHg 54%
    02:00 +19°C° 0 mm 4 mps 763 mmHg 51%
    03:00 +19°C° 0 mm 4 mps 763 mmHg 49%
    04:00 +19°C° 0 mm 4 mps 764 mmHg 49%
    05:00 +19°C° 0 mm 4 mps 764 mmHg 50%
    06:00 +19°C° 0 mm 4 mps 765 mmHg 50%
    07:00 +20°C° 0 mm 4 mps 765 mmHg 46%
    08:00 +21°C° 0 mm 4 mps 766 mmHg 42%
    09:00 +21°C° 0 mm 4 mps 766 mmHg 39%
    10:00 +22°C° 0 mm 4 mps 766 mmHg 35%
    11:00 +23°C° 0 mm 4 mps 766 mmHg 31%
    12:00 +25°C° 0 mm 4 mps 765 mmHg 27%
    13:00 +25°C° 0 mm 4 mps 765 mmHg 27%
    14:00 +25°C° 0 mm 5 mps 765 mmHg 27%
    15:00 +25°C° 0 mm 5 mps 764 mmHg 27%
    16:00 +23°C° 0 mm 5 mps 764 mmHg 31%
    17:00 +22°C° 0 mm 4 mps 765 mmHg 36%
    18:00 +21°C° 0 mm 4 mps 765 mmHg 40%
    19:00 +21°C° 0 mm 4 mps 765 mmHg 42%
    20:00 +20°C° 0 mm 4 mps 766 mmHg 44%
    21:00 +20°C° 0 mm 3 mps 766 mmHg 47%
    22:00 +20°C° 0 mm 3 mps 766 mmHg 47%
    23:00 +20°C° 0 mm 4 mps 766 mmHg 48%

    22 April, Monday

    Time Temperature Precipitation Wind Pressure Humidity
    00:00 +19°C° 0 mm 4 mps 766 mmHg 49%
    01:00 +19°C° 0 mm 4 mps 765 mmHg 50%
    02:00 +18°C° 0 mm 4 mps 765 mmHg 52%
    03:00 +18°C° 0 mm 4 mps 765 mmHg 54%
    04:00 +18°C° 0 mm 4 mps 765 mmHg 54%
    05:00 +18°C° 0 mm 4 mps 766 mmHg 54%
    06:00 +18°C° 0 mm 3 mps 766 mmHg 54%
    07:00 +20°C° 0 mm 3 mps 766 mmHg 47%
    08:00 +21°C° 0 mm 3 mps 766 mmHg 41%
    09:00 +24°C° 0 mm 3 mps 767 mmHg 35%
    10:00 +26°C° 0 mm 3 mps 766 mmHg 33%
    11:00 +27°C° 0 mm 3 mps 766 mmHg 31%
    12:00 +28°C° 0 mm 2 mps 765 mmHg 29%
    13:00 +29°C° 0 mm 3 mps 765 mmHg 29%
    14:00 +29°C° 0 mm 3 mps 764 mmHg 29%
    15:00 +29°C° 0 mm 4 mps 764 mmHg 29%
    16:00 +29°C° 0 mm 4 mps 764 mmHg 33%
    17:00 +28°C° 0 mm 4 mps 764 mmHg 37%
    18:00 +27°C° 0 mm 4 mps 764 mmHg 42%
    19:00 +26°C° 0 mm 4 mps 765 mmHg 45%
    20:00 +25°C° 0 mm 4 mps 765 mmHg 48%
    21:00 +23°C° 0 mm 4 mps 765 mmHg 52%
    22:00 +22°C° 0 mm 4 mps 765 mmHg 54%
    23:00 +22°C° 0 mm 3 mps 765 mmHg 56%

    23 April, Tuesday

    Time Temperature Precipitation Wind Pressure Humidity
    00:00 +21°C° 0 mm 3 mps 765 mmHg 59%
    01:00 +20°C° 0 mm 3 mps 765 mmHg 61%
    02:00 +20°C° 0 mm 3 mps 764 mmHg 63%
    03:00 +20°C° 0 mm 3 mps 764 mmHg 65%
    04:00 +20°C° 0 mm 3 mps 765 mmHg 66%
    05:00 +20°C° 0 mm 3 mps 765 mmHg 67%
    06:00 +20°C° 0 mm 3 mps 765 mmHg 68%
    07:00 +21°C° 0 mm 3 mps 765 mmHg 62%
    08:00 +24°C° 0 mm 3 mps 765 mmHg 56%
    09:00 +26°C° 0 mm 4 mps 765 mmHg 51%
    10:00 +27°C° 0 mm 3 mps 765 mmHg 47%
    11:00 +29°C° 0 mm 3 mps 765 mmHg 42%
    12:00 +30°C° 0 mm 3 mps 764 mmHg 38%
    13:00 +31°C° 0 mm 3 mps 764 mmHg 38%
    14:00 +31°C° 0 mm 3 mps 763 mmHg 37%
    15:00 +32°C° 0 mm 4 mps 763 mmHg 37%
    16:00 +30°C° 0 mm 4 mps 763 mmHg 40%
    17:00 +29°C° 0 mm 4 mps 763 mmHg 44%
    18:00 +29°C° 0 mm 4 mps 764 mmHg 47%
    19:00 +27°C° 0 mm 4 mps 764 mmHg 52%
    20:00 +26°C° 0 mm 5 mps 764 mmHg 56%
    21:00 +25°C° 0 mm 5 mps 765 mmHg 61%
    22:00 +23°C° 0 mm 5 mps 764 mmHg 64%
    23:00 +23°C° 0 mm 5 mps 764 mmHg 67%

    24 April, Wednesday

    Time Temperature Precipitation Wind Pressure Humidity
    00:00 +22°C° 0 mm 4 mps 764 mmHg 71%
    01:00 +22°C° 0 mm 4 mps 764 mmHg 72%
    02:00 +21°C° 0 mm 4 mps 763 mmHg 74%
    03:00 +21°C° 0 mm 4 mps 763 mmHg 76%
    04:00 +21°C° 0 mm 4 mps 763 mmHg 76%
    05:00 +21°C° 0 mm 5 mps 764 mmHg 76%
    06:00 +21°C° 0 mm 5 mps 764 mmHg 77%
    07:00 +23°C° 0 mm 4 mps 764 mmHg 69%
    08:00 +26°C° 0 mm 4 mps 764 mmHg 62%
    09:00 +27°C° 0 mm 4 mps 764 mmHg 54%
    10:00 +29°C° 0 mm 3 mps 764 mmHg 49%
    11:00 +30°C° 0 mm 2 mps 764 mmHg 45%
    12:00 +31°C° 0 mm 2 mps 763 mmHg 40%
    13:00 +31°C° 0 mm 2 mps 763 mmHg 40%
    14:00 +31°C° 0 mm 3 mps 762 mmHg 40%
    15:00 +33°C° 0 mm 4 mps 762 mmHg 40%
    16:00 +30°C° 0 mm 4 mps 762 mmHg 47%
    17:00 +29°C° 0 mm 4 mps 762 mmHg 54%
    18:00 +27°C° 0 mm 4 mps 762 mmHg 61%
    19:00 +27°C° 0 mm 3 mps 763 mmHg 63%
    20:00 +26°C° 0 mm 3 mps 763 mmHg 66%
    21:00 +26°C° 0 mm 2 mps 763 mmHg 68%
    22:00 +25°C° 0 mm 3 mps 763 mmHg 69%
    23:00 +25°C° 0 mm 4 mps 762 mmHg 69%
    Show more